Location: Newark
(54.0500°N, 12.8333°E)
Time: 00:31:30
(UTC+00:00)

ISS - Visible Passes

Search period start: 09 December 2019 00:00
Search period end: 19 December 2019 00:00
Orbit: 411 x 421 km, 51.6° (Epoch: 08 December)

Date Brightness Start Highest point End Pass type
(mag) Time Alt. Az. Time Alt. Az. Time Alt. Az.
09 Dec -1.1 16:38:18 10° W 16:40:46 19° SSW 16:43:14 10° SSE visible
10 Dec -1.4 15:49:35 10° W 15:52:26 25° SSW 15:55:16 10° SSE visible
11 Dec -0.2 16:39:35 10° SW 16:40:02 10° SW 16:40:29 10° SSW visible
12 Dec -0.6 15:49:48 10° WSW 15:51:45 15° SW 15:53:42 10° S visible
